This is the latest recevied weather packets stored in our database for station/object KI5GCD-13. If no packets are shown the sender has not sent any weather packets the latest 10 day(s).
| Time | Temp. | Humidity | Pressure | Rain* | Wind** | Luminosity | Snow |
|---|---|---|---|---|---|---|---|
| 1777879487 | 17.78° C | 60% | 1007.4 hPa | 0 mm | 0.89 m/s, 215° | - | - |
| 1777879187 | 17.78° C | 61% | 1007.5 hPa | 0 mm | 0.45 m/s, 262° | - | - |
| 1777878887 | 18.33° C | 59% | 1007.4 hPa | 0 mm | 0.45 m/s, 217° | - | - |
| 1777878588 | 18.33° C | 59% | 1007.5 hPa | 0 mm | 1.79 m/s, 242° | - | - |
| 1777878287 | 18.33° C | 58% | 1007.5 hPa | 0 mm | 0.89 m/s, 218° | - | - |
| 1777877987 | 18.33° C | 58% | 1007.4 hPa | 0 mm | 0.45 m/s, 216° | - | - |
| 1777877687 | 18.89° C | 57% | 1007.8 hPa | 0 mm | 2.68 m/s, 251° | - | - |
| 1777877387 | 18.89° C | 59% | 1007.7 hPa | 0 mm | 0.45 m/s, 241° | - | - |
| 1777877087 | 18.89° C | 58% | 1007.9 hPa | 0 mm | 1.34 m/s, 272° | - | - |
| 1777876787 | 18.33° C | 60% | 1007.7 hPa | 0 mm | 0.89 m/s, 178° | - | - |
| 1777876487 | 18.33° C | 59% | 1007.9 hPa | 0 mm | 0.45 m/s, 222° | - | - |
| 1777876187 | 18.33° C | 60% | 1008 hPa | 0 mm | 0.89 m/s, 204° | - | - |
| 1777875887 | 18.89° C | 60% | 1008.1 hPa | 0 mm | 0.45 m/s, 236° | - | - |
| 1777875588 | 18.89° C | 58% | 1008.1 hPa | 0 mm | 2.68 m/s, 208° | - | - |
| 1777875287 | 18.89° C | 61% | 1008.1 hPa | 0 mm | 0 m/s | - | - |
| 1777874987 | 18.89° C | 59% | 1008 hPa | 0 mm | 0.45 m/s, 235° | - | - |
| 1777874687 | 18.89° C | 59% | 1008.1 hPa | 0 mm | 0.89 m/s, 201° | - | - |
| 1777874388 | 18.89° C | 59% | 1008.3 hPa | 0 mm | 0 m/s | - | - |
| 1777874087 | 18.89° C | 60% | 1008.1 hPa | 0 mm | 0.45 m/s, 233° | - | - |
| 1777873788 | 18.89° C | 59% | 1008.1 hPa | 0 mm | 0.89 m/s, 233° | - | - |
| 1777873487 | 18.89° C | 59% | 1008.4 hPa | 0 mm | 0.89 m/s, 197° | - | - |
| 1777873187 | 18.89° C | 59% | 1008.3 hPa | 0 mm | 0.89 m/s, 188° | - | - |
| 1777872887 | 19.44° C | 58% | 1008.4 hPa | 0 mm | 0.45 m/s, 235° | - | - |
| 1777872588 | 18.89° C | 58% | 1008.1 hPa | 0 mm | 0.45 m/s, 253° | - | - |
| 1777872287 | 19.44° C | 58% | 1008.1 hPa | 0 mm | 0.89 m/s, 222° | - | - |
* Rain latest hour (hover to see other rain measurements)
** Current wind speed in m/s (hover to see current wind gust speed)